Location: Unspecified
(0.0000°N, 0.0000°E)
Time: 06:29:35
(UTC+00:00)

Explorer 7 - Pass Details

Date: 25 November 2019
Orbit: 485 x 680 km, 50.3° (Epoch: 11 December)

Event Time Altitude Azimuth Distance (km) Brightness Sun altitude
Rises 06:24:15 0° 329° (NNW) 2,588 9.8 8.7°
Reaches altitude 10° 06:26:29 10° 333° (NNW) 1,686 8.9 9.3°
Maximum altitude 06:30:13 58° 53° (NE) 567 7.3 10.1°
Drops below altitude 10° 06:33:54 10° 133° (SE) 1,659 10.9 11.0°
Sets 06:36:04 0° 137° (SE) 2,542 11.5 11.5°
